Weather History for Phoenix-Mesa Gateway Airport, AZ

Change the Weather History Date:

Thursday, September 26, 2013

  Actual Average Record
Temperature  
Mean Temperature 78 °F -  
Max Temperature 93 °F 95 °F 105 °F (2010)
Min Temperature 64 °F 69 °F 64 °F (2007)
Cooling Degree Days 14    
Growing Degree Days 28 (Base 50)    
Moisture  
Dew Point 32 °F    
Average Humidity 20    
Maximum Humidity 28    
Minimum Humidity 14    
Precipitation  
Precipitation 0.00 in - - ()
Sea Level Pressure  
Sea Level Pressure 29.71 in    
Wind  
Wind Speed 10 mph (SSW)    
Max Wind Speed 24 mph    
Max Gust Speed 34 mph    
Visibility 12 miles    
Events      
Averages and records for this station are not official NWS values.
T = Trace of Precipitation, MM = Missing Value Source: NWS Daily Summary

Daily Weather History Graph

Daily Weather History Graph

Search for Another Location

Airport:

Trip Planner

Search our weather history database for the weather conditions in past years. The results will help you decide how hot, cold, wet, or windy it might be!

Date:

Astronomy

Sep. 26, 2013 Rise Set
Actual Time 6:17 AM MST 6:17 PM MST
Civil Twilight 5:52 AM MST 6:42 PM MST
Nautical Twilight 5:24 AM MST 7:10 PM MST
Astronomical Twilight 4:55 AM MST 7:39 PM MST
Moon 11:33 PM MST (9/26) 12:57 PM MST (9/26)
Length of Visible Light 12h 49m
Length of Day
11h 59m
Waning Gibbous, 53% of the Moon is Illuminated
Sep 26
Waning Gibbous
Sep 26
Last Quarter
Oct 4
New
Oct 11
First Quarter
Oct 18
Full

Hourly Weather History & Observations

Time (MST) Temp. Dew Point Humidity Pressure Visibility Wind Dir Wind Speed Gust Speed Precip Events Conditions
12:15 AM 75.2 °F 33.8 °F 22% 29.70 in 10.0 mi SE 9.2 mph - N/A   Clear
12:35 AM 71.6 °F 35.6 °F 27% 29.71 in 10.0 mi ESE 6.9 mph - N/A   Clear
12:55 AM 71.6 °F 35.6 °F 27% 29.71 in 10.0 mi ESE 8.1 mph - N/A   Clear
1:15 AM 71.6 °F 35.6 °F 27% 29.72 in 10.0 mi East 8.1 mph - N/A   Clear
1:35 AM 71.6 °F 35.6 °F 27% 29.72 in 10.0 mi East 6.9 mph - N/A   Clear
1:55 AM 69.8 °F 33.8 °F 27% 29.71 in 10.0 mi ESE 8.1 mph - N/A   Clear
2:15 AM 69.8 °F 33.8 °F 27% 29.71 in 10.0 mi East 8.1 mph - N/A   Clear
2:35 AM 69.8 °F 32.0 °F 25% 29.70 in 10.0 mi ESE 9.2 mph - N/A   Clear
2:55 AM 71.6 °F 32.0 °F 23% 29.70 in 10.0 mi East 9.2 mph - N/A   Clear
3:15 AM 69.8 °F 30.2 °F 23% 29.70 in 10.0 mi ESE 6.9 mph - N/A   Clear
3:35 AM 66.2 °F 30.2 °F 26% 29.70 in 10.0 mi SE 8.1 mph - N/A   Clear
3:55 AM 64.4 °F 30.2 °F 28% 29.70 in 10.0 mi SE 9.2 mph - N/A   Clear
4:15 AM 64.4 °F 30.2 °F 28% 29.70 in 10.0 mi SE 8.1 mph - N/A   Clear
4:35 AM 64.4 °F 30.2 °F 28% 29.70 in 10.0 mi SSE 5.8 mph - N/A   Clear
4:47 AM 64.4 °F 28.4 °F 26% 29.70 in 20.0 mi SE 9.2 mph - N/A   Clear
4:55 AM 64.4 °F 28.4 °F 26% 29.70 in 10.0 mi SE 11.5 mph - N/A   Clear
5:15 AM 68.0 °F 28.4 °F 23% 29.70 in 10.0 mi SE 10.4 mph - N/A   Clear
5:35 AM 68.0 °F 26.6 °F 21% 29.70 in 10.0 mi SSE 8.1 mph - N/A   Clear
5:55 AM 66.2 °F 26.6 °F 23% 29.70 in 20.0 mi SE 16.1 mph - N/A   Clear
6:47 AM 66.2 °F 28.4 °F 24% 29.71 in 45.0 mi SE 10.4 mph - N/A   Clear
7:47 AM 73.4 °F 32.0 °F 22% 29.73 in 45.0 mi SE 9.2 mph - N/A   Clear
8:47 AM 78.8 °F 28.4 °F 16% 29.73 in 45.0 mi SE 13.8 mph - N/A   Partly Cloudy
9:47 AM 84.2 °F 32.0 °F 15% 29.74 in 45.0 mi South 11.5 mph - N/A   Clear
10:47 AM 84.2 °F 33.8 °F 16% 29.73 in 35.0 mi South 11.5 mph - N/A   Clear
11:47 AM 87.8 °F 33.8 °F 15% 29.71 in 30.0 mi SW 10.4 mph 20.7 mph N/A   Clear
12:47 PM 93.2 °F 37.4 °F 14% 29.68 in 20.0 mi SSW 19.6 mph 27.6 mph N/A   Widespread Dust
1:04 PM 93.2 °F 37.4 °F 14% 29.67 in 5.0 mi SSW 24.2 mph 33.4 mph N/A   Widespread Dust
1:47 PM 93.2 °F 37.4 °F 14% 29.66 in 5.0 mi SSW 21.9 mph 34.5 mph N/A   Widespread Dust
2:47 PM 93.2 °F 37.4 °F 14% 29.65 in 10.0 mi SW 21.9 mph 33.4 mph N/A   Widespread Dust
3:47 PM 93.2 °F 39.2 °F 15% 29.64 in 15.0 mi SSW 23.0 mph 32.2 mph N/A   Widespread Dust
4:47 PM 93.2 °F 42.8 °F 17% 29.64 in 15.0 mi SW 17.3 mph - N/A   Mostly Cloudy
5:47 PM 91.4 °F 41.0 °F 17% 29.64 in 15.0 mi SW 17.3 mph 24.2 mph N/A   Mostly Cloudy
7:47 PM 84.2 °F 37.4 °F 19% 29.67 in 20.0 mi WNW 11.5 mph - N/A   Mostly Cloudy
7:55 PM 82.4 °F 30.2 °F 15% 29.67 in 10.0 mi WNW 12.7 mph - N/A   Clear
8:15 PM 80.6 °F 28.4 °F 15% 29.69 in 10.0 mi West 10.4 mph - N/A   Clear
8:35 PM 80.6 °F 30.2 °F 16% 29.70 in 10.0 mi West 8.1 mph - N/A   Clear
8:47 PM 80.6 °F 26.6 °F 14% 29.71 in 20.0 mi WNW 13.8 mph - N/A   Mostly Cloudy
8:55 PM 80.6 °F 26.6 °F 14% 29.70 in 10.0 mi West 16.1 mph - N/A   Scattered Clouds
9:15 PM 78.8 °F 28.4 °F 16% 29.72 in 10.0 mi West 10.4 mph - N/A   Scattered Clouds
9:35 PM 78.8 °F 28.4 °F 16% 29.73 in 10.0 mi West 9.2 mph - N/A   Scattered Clouds
9:47 PM 78.8 °F 28.4 °F 16% 29.74 in 20.0 mi West 6.9 mph - N/A   Mostly Cloudy
9:55 PM 78.8 °F 30.2 °F 17% 29.74 in 10.0 mi West 6.9 mph - N/A   Mostly Cloudy
10:15 PM 78.8 °F 32.0 °F 18% 29.75 in 10.0 mi West 8.1 mph - N/A   Overcast
10:35 PM 78.8 °F 30.2 °F 17% 29.75 in 10.0 mi NW 3.5 mph - N/A   Mostly Cloudy
10:47 PM 78.8 °F 30.2 °F 17% 29.76 in 20.0 mi NW 4.6 mph - N/A   Mostly Cloudy
10:55 PM 77.0 °F 32.0 °F 19% 29.76 in 10.0 mi NNW 3.5 mph - N/A   Mostly Cloudy
11:15 PM 75.2 °F 32.0 °F 21% 29.76 in 10.0 mi NW 4.6 mph - N/A   Mostly Cloudy
11:35 PM 75.2 °F 30.2 °F 19% 29.77 in 10.0 mi WNW 6.9 mph - N/A   Overcast
11:47 PM 75.2 °F 28.4 °F 18% 29.77 in 20.0 mi WNW 5.8 mph - N/A   Overcast
11:55 PM 75.2 °F 28.4 °F 18% 29.77 in 10.0 mi NW 11.5 mph - N/A   Mostly Cloudy